AFR13DT LFPG-LFMN

Flight info

Callsign AFR13DT
Flight time 1h 13m
Altitude 35000
Route LFPG/27L LATRA DCT LAMUT DCT UTUVA DCT LERGA DCT LIQID DCT LATAM DCT TUNUR DCT NISAR
Aircraft A320/M-SDE3FGHIRWY/LB1

Departure

Time 2026-05-03 20:24
Airport Charles de Gaulle International Airport (LFPG)

Arrival

Time 2026-05-03 21:37
Airport Nice-Côte d'Azur Airport (LFMN)
Time Latitude Longitude Altitude Speed Heading
2026-05-03 20:15 49.01795 2.54333 362 ft 0 kts 291°
2026-05-03 20:16 49.01795 2.54332 362 ft 1 kts 291°
2026-05-03 20:16 49.01802 2.54304 364 ft 2 kts 292°
2026-05-03 20:16 49.01813 2.54241 355 ft 8 kts 277°
2026-05-03 20:16 49.01824 2.54163 359 ft 9 kts 300°
2026-05-03 20:17 49.01884 2.54130 357 ft 9 kts 357°
2026-05-03 20:17 49.01940 2.54141 362 ft 8 kts 18°
2026-05-03 20:17 49.01987 2.54204 358 ft 9 kts 58°
2026-05-03 20:17 49.01999 2.54290 354 ft 9 kts 86°
2026-05-03 20:18 49.02007 2.54453 358 ft 22 kts 85°
2026-05-03 20:18 49.02022 2.54712 354 ft 20 kts 86°
2026-05-03 20:18 49.02032 2.54934 354 ft 22 kts 85°
2026-05-03 20:18 49.02046 2.55168 354 ft 23 kts 85°
2026-05-03 20:19 49.02057 2.55401 354 ft 19 kts 85°
2026-05-03 20:19 49.02067 2.55590 354 ft 18 kts 86°
2026-05-03 20:19 49.02078 2.55782 358 ft 19 kts 84°
2026-05-03 20:19 49.02090 2.55989 354 ft 20 kts 85°
2026-05-03 20:20 49.02099 2.56170 357 ft 15 kts 86°
2026-05-03 20:20 49.02068 2.56305 356 ft 14 kts 132°
2026-05-03 20:20 49.02024 2.56445 354 ft 16 kts 90°
2026-05-03 20:20 49.02031 2.56561 357 ft 8 kts 84°
2026-05-03 20:21 49.02062 2.56623 357 ft 9 kts 21°
2026-05-03 20:21 49.02121 2.56620 359 ft 8 kts 355°
2026-05-03 20:21 49.02171 2.56615 354 ft 7 kts 357°
2026-05-03 20:21 49.02239 2.56608 354 ft 12 kts 353°
2026-05-03 20:22 49.02316 2.56580 361 ft 11 kts 329°
2026-05-03 20:22 49.02340 2.56489 354 ft 7 kts 265°
2026-05-03 20:22 49.02340 2.56478 354 ft 0 kts 265°
2026-05-03 20:23 49.02338 2.56450 354 ft 17 kts 266°
2026-05-03 20:23 49.02301 2.55783 355 ft 107 kts 264°
2026-05-03 20:23 49.02218 2.54279 434 ft 167 kts 265°
2026-05-03 20:23 49.02115 2.52377 944 ft 189 kts 265°
2026-05-03 20:24 49.02019 2.50310 1504 ft 204 kts 264°
2026-05-03 20:24 49.01901 2.48103 2129 ft 216 kts 263°
2026-05-03 20:24 49.01772 2.45820 3134 ft 217 kts 263°
2026-05-03 20:24 49.01644 2.43539 4138 ft 218 kts 263°
2026-05-03 20:25 49.01514 2.41227 5128 ft 220 kts 263°
2026-05-03 20:25 49.01383 2.38887 6061 ft 223 kts 263°
2026-05-03 20:25 49.01252 2.36516 6831 ft 226 kts 264°
2026-05-03 20:25 49.01300 2.34094 7572 ft 231 kts 272°
2026-05-03 20:26 49.01544 2.31656 8341 ft 235 kts 278°
2026-05-03 20:26 49.01884 2.29208 9128 ft 238 kts 279°
2026-05-03 20:26 49.02244 2.26739 9900 ft 240 kts 278°
2026-05-03 20:26 49.02595 2.24238 10612 ft 243 kts 278°
2026-05-03 20:27 49.02934 2.21704 11350 ft 245 kts 277°
2026-05-03 20:27 49.03263 2.19146 12079 ft 248 kts 277°
2026-05-03 20:27 49.03588 2.16552 12796 ft 250 kts 276°
2026-05-03 20:27 49.03894 2.13926 13505 ft 252 kts 271°
2026-05-03 20:28 49.03845 2.11317 14140 ft 250 kts 256°
2026-05-03 20:28 49.03308 2.08814 14761 ft 248 kts 240°
2026-05-03 20:28 49.02323 2.06624 15405 ft 248 kts 225°
2026-05-03 20:28 49.00993 2.04951 16033 ft 250 kts 211°
2026-05-03 20:29 48.99414 2.03908 16661 ft 253 kts 196°
2026-05-03 20:29 48.97661 2.03569 17292 ft 258 kts 181°
2026-05-03 20:29 48.95848 2.03936 17831 ft 267 kts 174°
2026-05-03 20:29 48.94005 2.04448 18364 ft 272 kts 174°
2026-05-03 20:30 48.92122 2.04968 18808 ft 280 kts 174°
2026-05-03 20:30 48.90160 2.05503 19148 ft 288 kts 174°
2026-05-03 20:30 48.88201 2.06040 19878 ft 283 kts 175°
2026-05-03 20:30 48.86280 2.06567 20629 ft 278 kts 175°
2026-05-03 20:31 48.84368 2.07088 21207 ft 280 kts 176°
2026-05-03 20:31 48.82439 2.07604 21732 ft 283 kts 176°
2026-05-03 20:31 48.80494 2.08125 22265 ft 285 kts 176°
2026-05-03 20:31 48.78532 2.08652 22809 ft 287 kts 176°
2026-05-03 20:32 48.76554 2.09185 23273 ft 292 kts 176°
2026-05-03 20:32 48.74536 2.09725 23663 ft 297 kts 177°
2026-05-03 20:32 48.72480 2.10276 24015 ft 303 kts 176°
2026-05-03 20:32 48.70384 2.10838 24371 ft 308 kts 176°
2026-05-03 20:33 48.68254 2.11518 24680 ft 319 kts 170°
2026-05-03 20:33 48.66141 2.12746 24982 ft 333 kts 161°
2026-05-03 20:33 48.64044 2.14338 25266 ft 340 kts 161°
2026-05-03 20:33 48.61933 2.15939 25547 ft 347 kts 161°
2026-05-03 20:34 48.59746 2.17590 25831 ft 354 kts 161°
2026-05-03 20:34 48.57520 2.19265 26151 ft 360 kts 161°
2026-05-03 20:34 48.55348 2.20919 27254 ft 339 kts 161°
2026-05-03 20:34 48.53304 2.22486 28352 ft 323 kts 162°
2026-05-03 20:35 48.51315 2.23989 29010 ft 318 kts 162°
2026-05-03 20:35 48.49331 2.25470 29484 ft 318 kts 162°
2026-05-03 20:35 48.47347 2.26941 29891 ft 319 kts 162°
2026-05-03 20:35 48.45348 2.28421 30226 ft 321 kts 162°
2026-05-03 20:36 48.43369 2.29890 30525 ft 323 kts 162°
2026-05-03 20:36 48.41313 2.31420 30816 ft 326 kts 163°
2026-05-03 20:36 48.39264 2.32945 31058 ft 330 kts 163°
2026-05-03 20:36 48.37198 2.34488 31339 ft 333 kts 163°
2026-05-03 20:37 48.35112 2.36047 31627 ft 336 kts 163°
2026-05-03 20:37 48.33013 2.37613 31921 ft 338 kts 163°
2026-05-03 20:37 48.30893 2.39192 32198 ft 342 kts 163°
2026-05-03 20:37 48.28746 2.40757 32495 ft 342 kts 166°
2026-05-03 20:38 48.26535 2.42014 32779 ft 340 kts 169°
2026-05-03 20:38 48.24292 2.43211 33065 ft 343 kts 169°
2026-05-03 20:38 48.22063 2.44391 33315 ft 346 kts 170°
2026-05-03 20:38 48.19783 2.45596 33568 ft 349 kts 170°
2026-05-03 20:39 48.17484 2.46814 33799 ft 352 kts 170°
2026-05-03 20:39 48.15165 2.48045 34040 ft 355 kts 170°
2026-05-03 20:39 48.12832 2.49280 34231 ft 357 kts 169°
2026-05-03 20:39 48.10478 2.50522 34417 ft 360 kts 169°
2026-05-03 20:40 48.08098 2.51776 34563 ft 364 kts 169°
2026-05-03 20:40 48.05690 2.53005 34685 ft 368 kts 170°
2026-05-03 20:40 48.03246 2.54213 34814 ft 371 kts 170°
2026-05-03 20:40 48.00781 2.55413 34937 ft 375 kts 170°
2026-05-03 20:41 47.98279 2.56622 34966 ft 381 kts 169°
2026-05-03 20:41 47.93209 2.59088 34987 ft 395 kts 169°
2026-05-03 20:42 47.87898 2.61701 34983 ft 408 kts 169°
2026-05-03 20:42 47.82456 2.64375 34981 ft 420 kts 168°
2026-05-03 20:43 47.76834 2.67124 34969 ft 429 kts 168°
2026-05-03 20:43 47.71141 2.69908 34983 ft 431 kts 168°
2026-05-03 20:44 47.65433 2.72695 34991 ft 431 kts 168°
2026-05-03 20:44 47.59726 2.75467 34991 ft 431 kts 168°
2026-05-03 20:45 47.54020 2.78228 34983 ft 431 kts 168°
2026-05-03 20:45 47.48314 2.80989 34988 ft 431 kts 168°
2026-05-03 20:46 47.42650 2.83724 34997 ft 431 kts 168°
2026-05-03 20:46 47.36945 2.86461 34997 ft 431 kts 168°
2026-05-03 20:47 47.32171 2.88745 34989 ft 431 kts 168°
2026-05-03 20:47 47.26463 2.91479 34975 ft 431 kts 168°
2026-05-03 20:48 47.20780 2.94204 34981 ft 433 kts 168°
2026-05-03 20:48 47.15048 2.96941 34986 ft 433 kts 168°
2026-05-03 20:49 47.09293 2.99623 34981 ft 433 kts 169°
2026-05-03 20:49 47.03497 3.02020 34987 ft 432 kts 171°
2026-05-03 20:50 46.97687 3.04323 34995 ft 433 kts 171°
2026-05-03 20:50 46.91871 3.06663 34977 ft 433 kts 169°
2026-05-03 20:51 46.86068 3.09053 34994 ft 433 kts 169°
2026-05-03 20:51 46.80257 3.11443 35001 ft 433 kts 169°
2026-05-03 20:52 46.74452 3.13808 35001 ft 433 kts 169°
2026-05-03 20:52 46.68649 3.16171 35002 ft 433 kts 169°
2026-05-03 20:53 46.62794 3.18545 35011 ft 439 kts 169°
2026-05-03 20:53 46.56929 3.20920 35007 ft 441 kts 169°
2026-05-03 20:54 46.51016 3.23305 34998 ft 441 kts 169°
2026-05-03 20:54 46.42134 3.26887 35005 ft 442 kts 169°
2026-05-03 20:55 46.36206 3.29270 35005 ft 442 kts 169°
2026-05-03 20:55 46.30283 3.31644 34998 ft 442 kts 169°
2026-05-03 20:56 46.24345 3.34011 34999 ft 442 kts 169°
2026-05-03 20:56 46.18411 3.36376 35003 ft 443 kts 169°
2026-05-03 20:57 46.12472 3.38748 35010 ft 443 kts 169°
2026-05-03 20:57 46.06523 3.41116 35006 ft 443 kts 169°
2026-05-03 20:58 46.00623 3.43465 35011 ft 442 kts 169°
2026-05-03 20:58 45.94686 3.45815 35017 ft 442 kts 169°
2026-05-03 20:59 45.88754 3.48148 35031 ft 442 kts 169°
2026-05-03 20:59 45.82824 3.50533 35036 ft 442 kts 169°
2026-05-03 21:00 45.77933 3.52651 35034 ft 442 kts 168°
2026-05-03 21:00 45.71063 3.55687 35022 ft 442 kts 168°
2026-05-03 21:01 45.65226 3.58215 35033 ft 441 kts 168°
2026-05-03 21:01 45.59352 3.60712 35042 ft 440 kts 168°
2026-05-03 21:02 45.53486 3.63210 35041 ft 440 kts 168°
2026-05-03 21:02 45.47614 3.65718 35032 ft 440 kts 168°
2026-05-03 21:03 45.41756 3.68216 35032 ft 440 kts 168°
2026-05-03 21:03 45.35893 3.70707 35036 ft 439 kts 168°
2026-05-03 21:04 45.30056 3.73301 35023 ft 443 kts 162°
2026-05-03 21:04 45.24830 3.78142 35022 ft 459 kts 141°
2026-05-03 21:05 45.22740 3.81619 35027 ft 468 kts 129°
2026-05-03 21:05 45.20965 3.85513 35008 ft 470 kts 128°
2026-05-03 21:05 45.17426 3.93309 35021 ft 471 kts 128°
2026-05-03 21:06 45.13860 4.01101 35032 ft 471 kts 128°
2026-05-03 21:06 45.10290 4.08883 35027 ft 471 kts 128°
2026-05-03 21:07 45.06741 4.16622 35038 ft 472 kts 128°
2026-05-03 21:07 45.03072 4.24303 35021 ft 468 kts 135°
2026-05-03 21:08 44.98731 4.31082 35044 ft 465 kts 138°
2026-05-03 21:08 44.94353 4.37819 35051 ft 466 kts 138°
2026-05-03 21:09 44.89969 4.44543 35051 ft 466 kts 138°
2026-05-03 21:09 44.85581 4.51253 35063 ft 465 kts 138°
2026-05-03 21:10 44.81187 4.57947 35058 ft 465 kts 137°
2026-05-03 21:10 44.76792 4.64637 35072 ft 466 kts 137°
2026-05-03 21:11 44.72393 4.71327 35086 ft 466 kts 137°
2026-05-03 21:11 44.67989 4.78005 35086 ft 465 kts 137°
2026-05-03 21:12 44.63578 4.84672 35094 ft 465 kts 137°
2026-05-03 21:12 44.59266 4.91442 34722 ft 462 kts 136°
2026-05-03 21:13 44.57175 4.94830 34251 ft 457 kts 135°
2026-05-03 21:13 44.55101 4.98201 34049 ft 456 kts 135°
2026-05-03 21:13 44.50859 5.04798 34085 ft 452 kts 142°
2026-05-03 21:14 44.45696 5.09623 33911 ft 444 kts 159°
2026-05-03 21:14 44.42888 5.11423 33403 ft 444 kts 159°
2026-05-03 21:14 44.40074 5.13221 32862 ft 445 kts 160°
2026-05-03 21:15 44.37290 5.14997 32359 ft 446 kts 159°
2026-05-03 21:15 44.34459 5.16807 31834 ft 448 kts 159°
2026-05-03 21:15 44.31624 5.18621 31338 ft 449 kts 159°
2026-05-03 21:15 44.28790 5.20436 30828 ft 451 kts 159°
2026-05-03 21:16 44.25919 5.22272 30341 ft 453 kts 159°
2026-05-03 21:16 44.23018 5.24122 29802 ft 461 kts 159°
2026-05-03 21:16 44.20089 5.25991 29241 ft 465 kts 159°
2026-05-03 21:16 44.17137 5.27875 28699 ft 467 kts 159°
2026-05-03 21:17 44.14180 5.29765 28153 ft 469 kts 159°
2026-05-03 21:17 44.12213 5.31022 27797 ft 469 kts 159°
2026-05-03 21:17 44.08233 5.33558 27107 ft 472 kts 159°
2026-05-03 21:17 44.05240 5.35454 26650 ft 474 kts 159°
2026-05-03 21:18 44.02238 5.37354 26190 ft 475 kts 159°
2026-05-03 21:18 43.99308 5.39522 25695 ft 479 kts 149°
2026-05-03 21:18 43.96702 5.42422 25211 ft 481 kts 139°
2026-05-03 21:18 43.94523 5.45950 24738 ft 482 kts 130°
2026-05-03 21:19 43.92527 5.49667 24298 ft 479 kts 130°
2026-05-03 21:19 43.90537 5.53368 23859 ft 476 kts 130°
2026-05-03 21:19 43.88585 5.56988 23371 ft 473 kts 130°
2026-05-03 21:19 43.86619 5.60624 22859 ft 470 kts 130°
2026-05-03 21:20 43.84665 5.64228 22361 ft 466 kts 130°
2026-05-03 21:20 43.82723 5.67806 21865 ft 463 kts 130°
2026-05-03 21:20 43.80794 5.71360 21370 ft 459 kts 129°
2026-05-03 21:20 43.78881 5.74878 20889 ft 456 kts 130°
2026-05-03 21:21 43.76976 5.78372 20420 ft 453 kts 130°
2026-05-03 21:21 43.75081 5.81847 19962 ft 450 kts 130°
2026-05-03 21:21 43.73194 5.85300 19505 ft 450 kts 130°
2026-05-03 21:21 43.71306 5.88747 19054 ft 448 kts 130°
2026-05-03 21:22 43.69457 5.92124 18611 ft 445 kts 130°
2026-05-03 21:22 43.67570 5.95569 18134 ft 442 kts 130°
2026-05-03 21:22 43.65724 5.98940 17631 ft 439 kts 130°
2026-05-03 21:22 43.63911 6.02244 17152 ft 436 kts 130°
2026-05-03 21:23 43.62075 6.05581 16687 ft 436 kts 130°
2026-05-03 21:23 43.60275 6.08932 16222 ft 434 kts 126°
2026-05-03 21:23 43.58888 6.12633 15770 ft 435 kts 115°
2026-05-03 21:23 43.57816 6.16530 15335 ft 433 kts 114°
2026-05-03 21:24 43.56758 6.20394 14895 ft 429 kts 114°
2026-05-03 21:24 43.55708 6.24217 14466 ft 422 kts 114°
2026-05-03 21:24 43.54682 6.27951 14039 ft 412 kts 114°
2026-05-03 21:24 43.53678 6.31604 13577 ft 403 kts 114°
2026-05-03 21:25 43.52690 6.35189 13102 ft 397 kts 114°
2026-05-03 21:25 43.51711 6.38718 12635 ft 393 kts 114°
2026-05-03 21:25 43.50699 6.42188 12179 ft 386 kts 120°
2026-05-03 21:25 43.49196 6.45172 11670 ft 376 kts 135°
2026-05-03 21:26 43.47405 6.47773 11162 ft 373 kts 136°
2026-05-03 21:26 43.45688 6.50441 10669 ft 372 kts 128°
2026-05-03 21:26 43.44547 6.53626 10189 ft 373 kts 110°
2026-05-03 21:26 43.44197 6.57146 9705 ft 371 kts 92°
2026-05-03 21:27 43.44320 6.60640 9368 ft 359 kts 90°
2026-05-03 21:27 43.44452 6.64014 9071 ft 346 kts 90°
2026-05-03 21:27 43.44576 6.67219 8794 ft 335 kts 90°
2026-05-03 21:27 43.44694 6.70370 8519 ft 324 kts 90°
2026-05-03 21:28 43.44804 6.73412 8268 ft 313 kts 90°
2026-05-03 21:28 43.44908 6.76356 8017 ft 301 kts 90°
2026-05-03 21:28 43.45009 6.79172 7770 ft 288 kts 90°
2026-05-03 21:28 43.45105 6.81889 7516 ft 280 kts 90°
2026-05-03 21:29 43.45193 6.84530 7270 ft 273 kts 90°
2026-05-03 21:29 43.45276 6.87110 7024 ft 266 kts 90°
2026-05-03 21:29 43.45360 6.89624 6768 ft 260 kts 90°
2026-05-03 21:29 43.45442 6.92090 6502 ft 256 kts 90°
2026-05-03 21:30 43.45522 6.94505 6220 ft 250 kts 89°
2026-05-03 21:30 43.45601 6.96873 5939 ft 245 kts 90°
2026-05-03 21:30 43.45678 6.99194 5661 ft 240 kts 89°
2026-05-03 21:30 43.45754 7.01463 5387 ft 235 kts 89°
2026-05-03 21:31 43.45829 7.03693 5113 ft 231 kts 89°
2026-05-03 21:31 43.45900 7.05887 4843 ft 228 kts 89°
2026-05-03 21:31 43.45968 7.08058 4559 ft 226 kts 89°
2026-05-03 21:31 43.46035 7.10203 4280 ft 223 kts 89°
2026-05-03 21:32 43.46081 7.11640 4092 ft 222 kts 89°
2026-05-03 21:32 43.46174 7.13716 3818 ft 220 kts 81°
2026-05-03 21:32 43.46895 7.15520 3548 ft 220 kts 39°
2026-05-03 21:32 43.48314 7.16188 3276 ft 220 kts
2026-05-03 21:33 43.49839 7.16087 2983 ft 218 kts 358°
2026-05-03 21:33 43.51341 7.15931 2713 ft 213 kts 357°
2026-05-03 21:33 43.52780 7.15771 2443 ft 202 kts 358°
2026-05-03 21:33 43.54119 7.15618 2274 ft 183 kts 357°
2026-05-03 21:34 43.55282 7.15475 2239 ft 153 kts 358°
2026-05-03 21:34 43.56298 7.15343 2033 ft 144 kts 358°
2026-05-03 21:34 43.57282 7.15187 1744 ft 142 kts 357°
2026-05-03 21:34 43.58257 7.15031 1467 ft 139 kts 356°
2026-05-03 21:35 43.59211 7.14882 1286 ft 138 kts 356°
2026-05-03 21:35 43.60176 7.14719 1104 ft 140 kts 358°
2026-05-03 21:35 43.61138 7.14735 992 ft 135 kts 19°
2026-05-03 21:35 43.61888 7.15426 853 ft 135 kts 55°
2026-05-03 21:36 43.62432 7.16535 814 ft 144 kts 52°
2026-05-03 21:36 43.63139 7.17537 740 ft 147 kts 44°
2026-05-03 21:36 43.63859 7.18536 556 ft 146 kts 46°
2026-05-03 21:36 43.64531 7.19508 321 ft 135 kts 45°
2026-05-03 21:37 43.65166 7.20389 87 ft 127 kts 45°
2026-05-03 21:37 43.65736 7.21176 24 ft 92 kts 44°
2026-05-03 21:37 43.66021 7.21562 21 ft 43 kts 45°
2026-05-03 21:37 43.66194 7.21761 22 ft 21 kts
2026-05-03 21:38 43.66280 7.21663 22 ft 10 kts 308°
2026-05-03 21:38 43.66273 7.21586 25 ft 8 kts 233°
2026-05-03 21:38 43.66234 7.21535 22 ft 7 kts 224°
2026-05-03 21:38 43.66200 7.21488 22 ft 7 kts 225°
2026-05-03 21:39 43.66166 7.21442 22 ft 9 kts 225°
2026-05-03 21:39 43.66091 7.21332 22 ft 21 kts 223°
2026-05-03 21:39 43.65984 7.21190 22 ft 15 kts 226°
2026-05-03 21:39 43.65962 7.21095 22 ft 11 kts 294°
2026-05-03 21:40 43.66022 7.21035 22 ft 11 kts 304°
2026-05-03 21:40 43.65997 7.20950 22 ft 10 kts 226°
2026-05-03 21:40 43.65966 7.20868 22 ft 10 kts 275°
2026-05-03 21:40 43.66014 7.20807 24 ft 10 kts 321°
2026-05-03 21:41 43.66041 7.20733 22 ft 5 kts 290°
2026-05-03 21:41 43.66049 7.20707 23 ft 1 kts 290°
2026-05-03 21:41 43.66049 7.20706 23 ft 0 kts 290°